Regional Weather Roundup
Issued by NWS

Home | Current Version | Previous Version | Graphics & Text | Print | Product List | Glossary On
Versions: 1 2 3 4 5 6 7 8 9 10 11 12 13 14 15 16 17 18 19 20 21 22 23 24 25 26 27 28 29 30 31 32 33 34 35 36 37 38 39 40 41 42 43 44 45 46 47 48 49 50
000
ASUS43 KBIS 181110
RWRND

NORTH DAKOTA REGIONAL WEATHER ROUNDUP
NATIONAL WEATHER SERVICE BISMARCK ND
600 AM CDT THU SEP 18 2014

NOTE: "FAIR" INDICATES FEW OR NO CLOUDS BELOW 12,000 FEET WITH NO
SIGNIFICANT WEATHER AND/OR OBSTRUCTIONS TO VISIBILITY.


NDZ001>003-009>011-017-181200-
NORTHWEST NORTH DAKOTA

CITY           SKY/WX    TMP DP  RH WIND       PRES   REMARKS
WILLISTON      PTCLDY    56  46  69 S5        29.79F
MINOT          CLEAR     45  43  93 E7        29.89F
MINOT AFB      PTCLDY    44  44 100 SE10      29.88F
$$

NDZ018>021-031>035-040>046-181200-
SOUTHWEST NORTH DAKOTA

CITY           SKY/WX    TMP DP  RH WIND       PRES   REMARKS
BISMARCK       CLEAR     47  46  97 E8        29.93F
DICKINSON      CLEAR     52  46  80 S12       29.84F
GARRISON         N/A     52  49  89 SE10      29.89F
HETTINGER ARPT CLEAR     51  46  83 SE9       29.89F
$$

NDZ004>008-012>016-024-026-027-054-181200-
NORTHEAST NORTH DAKOTA

CITY           SKY/WX    TMP DP  RH WIND       PRES   REMARKS
GRAND FORKS    CLEAR     37  36  96 CALM      30.00F
GRND FRKS AFB  CLEAR     36  36 100 NE2       30.00F
DEVILS LAKE    CLEAR     43  37  81 SE6       29.96F
$$

NDZ022-023-025-028>030-036>039-047>053-181200-
SOUTHEAST NORTH DAKOTA

CITY           SKY/WX    TMP DP  RH WIND       PRES   REMARKS
FARGO          CLEAR     42  40  92 CALM      30.00S
JAMESTOWN      FOG       40  39  97 CALM      29.97F VSB 1/2
$$




USA.gov is the U.S. government's official web portal to all federal, state and local government web resources and services.